When you browse on this site, cookies collect data to enhance your experience and personalize the content and advertising you see.
Visit our Privacy Policy to learn more. By continuing to use the site, you agree to this use of cookies and data.
  • In Latvia
  • List of Countries
  • For 7 days
  • Water Temperature
  • Weather Map
  • Weather Widgets
  • user-avatar
    Login

    Hourly Weather Kalgoorlie

    Today, 6 December, Friday

    Time Temperature Precipitation Wind Pressure Humidity
    00:00 +24°C° 0 mm 8 mps 729 mmHg 50%
    01:00 +23°C° 0 mm 8 mps 729 mmHg 53%
    02:00 +21°C° 0 mm 7 mps 729 mmHg 57%
    03:00 +21°C° 0 mm 7 mps 729 mmHg 60%
    04:00 +20°C° 0 mm 6 mps 729 mmHg 63%
    05:00 +19°C° 0 mm 6 mps 729 mmHg 65%
    06:00 +22°C° 0 mm 6 mps 729 mmHg 55%
    07:00 +26°C° 0 mm 7 mps 729 mmHg 45%
    08:00 +29°C° 0 mm 7 mps 729 mmHg 33%
    09:00 +33°C° 0 mm 8 mps 729 mmHg 27%
    10:00 +38°C° 0 mm 8 mps 729 mmHg 20%
    11:00 +41°C° 0 mm 8 mps 728 mmHg 14%
    12:00 +43°C° 0 mm 8 mps 728 mmHg 12%
    13:00 +44°C° 0 mm 7 mps 727 mmHg 10%
    14:00 +45°C° 0 mm 7 mps 726 mmHg 8%
    15:00 +45°C° 0 mm 6 mps 725 mmHg 8%
    16:00 +45°C° 0 mm 6 mps 725 mmHg 7%
    17:00 +45°C° 0 mm 5 mps 724 mmHg 7%
    18:00 +42°C° 0 mm 6 mps 724 mmHg 8%
    19:00 +40°C° 0 mm 6 mps 724 mmHg 9%
    20:00 +38°C° 0 mm 7 mps 723 mmHg 10%
    21:00 +36°C° 0 mm 6 mps 724 mmHg 11%
    22:00 +35°C° 0 mm 6 mps 724 mmHg 11%
    23:00 +35°C° 0 mm 6 mps 724 mmHg 12%

    Tomorrow, 7 December, Saturday

    Time Temperature Precipitation Wind Pressure Humidity
    00:00 +33°C° 0 mm 5 mps 723 mmHg 13%
    01:00 +32°C° 0 mm 5 mps 723 mmHg 13%
    02:00 +30°C° 0 mm 5 mps 723 mmHg 14%
    03:00 +30°C° 0 mm 5 mps 723 mmHg 18%
    04:00 +29°C° 0 mm 5 mps 724 mmHg 21%
    05:00 +28°C° 0 mm 5 mps 724 mmHg 24%
    06:00 +30°C° 0 mm 6 mps 724 mmHg 24%
    07:00 +33°C° 0 mm 6 mps 725 mmHg 24%
    08:00 +35°C° 0 mm 6 mps 725 mmHg 24%
    09:00 +36°C° 0 mm 6 mps 725 mmHg 22%
    10:00 +39°C° 0 mm 6 mps 725 mmHg 20%
    11:00 +40°C° 0 mm 6 mps 724 mmHg 17%
    12:00 +41°C° 0 mm 8 mps 724 mmHg 16%
    13:00 +42°C° 0 mm 9 mps 724 mmHg 14%
    14:00 +43°C° 0 mm 11 mps 723 mmHg 12%
    15:00 +42°C° 0 mm 10 mps 723 mmHg 12%
    16:00 +42°C° 0 mm 10 mps 723 mmHg 11%
    17:00 +42°C° 0 mm 9 mps 723 mmHg 10%
    18:00 +39°C° 0 mm 8 mps 724 mmHg 13%
    19:00 +35°C° 0 mm 7 mps 724 mmHg 15%
    20:00 +33°C° 0 mm 6 mps 724 mmHg 17%
    21:00 +32°C° 0 mm 7 mps 725 mmHg 21%
    22:00 +29°C° 0 mm 8 mps 725 mmHg 26%
    23:00 +28°C° 0 mm 9 mps 726 mmHg 30%

    Day after tomorrow, 8 December, Sunday

    Time Temperature Precipitation Wind Pressure Humidity
    00:00 +26°C° 0 mm 8 mps 726 mmHg 37%
    01:00 +24°C° 0 mm 7 mps 726 mmHg 45%
    02:00 +22°C° 0 mm 6 mps 726 mmHg 52%
    03:00 +21°C° 0 mm 6 mps 727 mmHg 55%
    04:00 +20°C° 0 mm 5 mps 727 mmHg 57%
    05:00 +19°C° 0 mm 4 mps 728 mmHg 60%
    06:00 +20°C° 0 mm 4 mps 728 mmHg 53%
    07:00 +21°C° 0 mm 4 mps 728 mmHg 46%
    08:00 +22°C° 0 mm 5 mps 729 mmHg 39%
    09:00 +25°C° 0 mm 4 mps 729 mmHg 32%
    10:00 +27°C° 0 mm 3 mps 729 mmHg 25%
    11:00 +28°C° 0 mm 3 mps 729 mmHg 19%
    12:00 +30°C° 0 mm 3 mps 728 mmHg 16%
    13:00 +31°C° 0 mm 3 mps 728 mmHg 14%
    14:00 +33°C° 0 mm 3 mps 727 mmHg 12%
    15:00 +33°C° 0 mm 4 mps 728 mmHg 12%
    16:00 +34°C° 0 mm 5 mps 728 mmHg 13%
    17:00 +34°C° 0 mm 5 mps 728 mmHg 13%
    18:00 +30°C° 0 mm 7 mps 729 mmHg 19%
    19:00 +28°C° 0 mm 8 mps 729 mmHg 24%
    20:00 +26°C° 0 mm 9 mps 729 mmHg 30%
    21:00 +23°C° 0 mm 9 mps 730 mmHg 38%
    22:00 +21°C° 0 mm 9 mps 731 mmHg 46%
    23:00 +18°C° 0 mm 9 mps 731 mmHg 54%

    9 December, Monday

    Time Temperature Precipitation Wind Pressure Humidity
    00:00 +17°C° 0 mm 8 mps 731 mmHg 57%
    01:00 +17°C° 0 mm 7 mps 731 mmHg 61%
    02:00 +16°C° 0 mm 6 mps 731 mmHg 65%
    03:00 +15°C° 0 mm 5 mps 732 mmHg 69%
    04:00 +14°C° 0 mm 5 mps 732 mmHg 72%
    05:00 +14°C° 0 mm 4 mps 732 mmHg 76%
    06:00 +15°C° 0 mm 5 mps 732 mmHg 68%
    07:00 +17°C° 0 mm 5 mps 733 mmHg 60%
    08:00 +20°C° 0 mm 5 mps 733 mmHg 52%
    09:00 +22°C° 0 mm 5 mps 733 mmHg 42%
    10:00 +25°C° 0 mm 4 mps 733 mmHg 33%
    11:00 +28°C° 0 mm 4 mps 733 mmHg 23%
    12:00 +29°C° 0 mm 4 mps 732 mmHg 20%
    13:00 +30°C° 0 mm 4 mps 731 mmHg 17%
    14:00 +33°C° 0 mm 4 mps 730 mmHg 14%
    15:00 +33°C° 0 mm 4 mps 730 mmHg 14%
    16:00 +33°C° 0 mm 4 mps 730 mmHg 13%
    17:00 +33°C° 0 mm 4 mps 730 mmHg 13%
    18:00 +30°C° 0 mm 5 mps 730 mmHg 15%
    19:00 +29°C° 0 mm 5 mps 731 mmHg 18%
    20:00 +27°C° 0 mm 5 mps 731 mmHg 20%
    21:00 +24°C° 0 mm 6 mps 731 mmHg 26%
    22:00 +22°C° 0 mm 7 mps 732 mmHg 31%
    23:00 +18°C° 0 mm 9 mps 732 mmHg 37%

    10 December, Tuesday

    Time Temperature Precipitation Wind Pressure Humidity
    00:00 +17°C° 0 mm 8 mps 732 mmHg 42%
    01:00 +16°C° 0 mm 7 mps 732 mmHg 47%
    02:00 +15°C° 0 mm 7 mps 731 mmHg 51%
    03:00 +14°C° 0 mm 6 mps 732 mmHg 55%
    04:00 +13°C° 0 mm 5 mps 732 mmHg 59%
    05:00 +13°C° 0 mm 5 mps 732 mmHg 63%
    06:00 +15°C° 0 mm 5 mps 732 mmHg 53%
    07:00 +19°C° 0 mm 5 mps 733 mmHg 43%
    08:00 +21°C° 0 mm 6 mps 733 mmHg 33%
    09:00 +24°C° 0 mm 6 mps 733 mmHg 28%
    10:00 +28°C° 0 mm 6 mps 732 mmHg 23%
    11:00 +32°C° 0 mm 6 mps 732 mmHg 17%
    12:00 +33°C° 0 mm 5 mps 732 mmHg 17%
    13:00 +34°C° 0 mm 5 mps 731 mmHg 16%
    14:00 +35°C° 0 mm 4 mps 730 mmHg 16%
    15:00 +35°C° 0 mm 4 mps 730 mmHg 15%
    16:00 +35°C° 0 mm 4 mps 730 mmHg 15%
    17:00 +35°C° 0 mm 4 mps 729 mmHg 14%
    18:00 +33°C° 0 mm 5 mps 730 mmHg 16%
    19:00 +30°C° 0 mm 5 mps 730 mmHg 17%
    20:00 +28°C° 0 mm 5 mps 730 mmHg 18%
    21:00 +26°C° 0 mm 7 mps 731 mmHg 25%
    22:00 +23°C° 0 mm 8 mps 731 mmHg 32%
    23:00 +19°C° 0 mm 10 mps 731 mmHg 39%

    11 December, Wednesday

    Time Temperature Precipitation Wind Pressure Humidity
    00:00 +18°C° 0 mm 9 mps 731 mmHg 42%
    01:00 +17°C° 0 mm 8 mps 731 mmHg 44%
    02:00 +16°C° 0 mm 8 mps 731 mmHg 47%
    03:00 +15°C° 0 mm 7 mps 731 mmHg 49%
    04:00 +15°C° 0 mm 6 mps 732 mmHg 52%
    05:00 +14°C° 0 mm 5 mps 732 mmHg 54%
    06:00 +16°C° 0 mm 5 mps 732 mmHg 48%
    07:00 +19°C° 0 mm 5 mps 733 mmHg 42%
    08:00 +21°C° 0 mm 6 mps 733 mmHg 36%
    09:00 +24°C° 0 mm 6 mps 733 mmHg 30%
    10:00 +27°C° 0 mm 6 mps 733 mmHg 25%
    11:00 +30°C° 0 mm 6 mps 733 mmHg 20%
    12:00 +32°C° 0 mm 6 mps 733 mmHg 19%
    13:00 +33°C° 0 mm 5 mps 732 mmHg 17%
    14:00 +34°C° 0 mm 5 mps 731 mmHg 15%
    15:00 +34°C° 0 mm 5 mps 731 mmHg 15%
    16:00 +34°C° 0 mm 5 mps 731 mmHg 15%
    17:00 +34°C° 0 mm 5 mps 731 mmHg 14%
    18:00 +32°C° 0 mm 4 mps 731 mmHg 16%
    19:00 +29°C° 0 mm 4 mps 732 mmHg 18%
    20:00 +27°C° 0 mm 4 mps 732 mmHg 20%
    21:00 +24°C° 0 mm 6 mps 733 mmHg 26%
    22:00 +23°C° 0 mm 7 mps 733 mmHg 31%
    23:00 +21°C° 0 mm 9 mps 733 mmHg 37%
    Show more